User: anonymous   Login
Location: Unspecified
(0.0000°N, 0.0000°E)
Time: 17:05:13
(UTC+00:00)
Language:

GAS SHIELD (DEBRIS) - Orbit

View from above orbital plane
View from above orbital plane
View from above satellite
View from above satellite

Ground track
Ground track

The orbit data is extracted from the following two-line orbital elements,

1 27612U 02058H   21024.93571928 -.00000018  00000-0  16608-4 0  9991
2 27612  64.5558 281.1742 0016802   9.4917 350.6502 14.79548627975965
Epoch (UTC): 24 January 2021 22:27:26
Eccentricity: 0.0016802
inclination: 64.5558°
perigee height: 619 km
apogee height: 642 km
right ascension of ascending node: 281.1742°
argument of perigee: 9.4917°
revolutions per day: 14.79548627
mean anomaly at epoch: 350.6502°
orbit number at epoch: 97596

The dashed part of the orbit path shows where the satellite is in the earth's shadow,  

DLR